RH
4 4 4 4 4 4 3 3 3 3 3 3 3 3 3 3 3 3 3 3 3 4 5 6 7 7 8 9 8 8 6 4 3 3 5 9 14 17 17 17 21 24 24 28 33 40 58 77 80 80 79 79 71 57 65 74 76 87 92 95 96 92 90 88 85 78 66 58 56 49 56 56 43 54 52 47 46 47 68 72 71 56 30 32 35 41 42 39
4 4 4 3 3 3 3 3 3 3 3 2 3 2 3 3 2 3 2 3 3 3 4 4 6 7 7 8 8 8 8 6 3 2 3 9 14 13 14 17 20 23 24 24 29 36 56 76 77 78 83 84 72 65 73 70 74 85 89 97 95 93 93 84 86 84 66 56 56 52 60 56 44 58 50 37 42 51 66 69 72 62 46 45 35 39 45 37
4 4 3 4 3 3 3 3 3 2 2 2 2 2 2 2 2 2 2 2 2 2 3 3 5 6 7 8 9 9 8 7 5 3 3 8 13 12 13 15 18 23 24 24 26 32 50 71 75 74 82 85 74 70 76 69 75 82 81 95 93 89 91 84 89 88 72 56 51 52 53 53 53 56 45 33 36 52 65 63 66 62 56 55 37 40 48 39
4 4 3 4 3 3 3 3 3 2 2 2 2 2 2 2 2 2 2 2 2 2 2 3 3 5 6 7 9 9 9 8 6 4 3 5 11 12 13 14 17 22 25 25 25 29 41 61 72 74 80 84 75 71 73 70 79 84 83 93 91 88 88 86 91 87 75 59 49 53 48 53 57 46 43 39 32 47 59 56 62 60 53 51 40 39 46 42
4 4 4 3 3 3 3 3 3 2 2 2 2 2 2 2 2 2 2 2 2 2 2 2 2 3 5 7 8 9 9 8 7 6 4 5 8 11 14 14 17 23 26 26 24 26 35 53 66 73 83 85 75 77 80 76 84 89 86 92 94 95 95 91 93 86 71 54 51 58 54 52 45 38 51 47 35 47 60 59 57 50 41 43 42 36 45 49
4 4 4 3 3 3 3 3 3 3 2 2 2 2 2 2 2 2 2 2 2 2 2 2 2 3 4 6 8 9 9 8 8 7 6 5 7 11 14 16 17 23 28 27 25 25 30 46 60 70 86 87 77 80 82 78 85 90 87 92 97 97 99 95 90 85 73 63 65 70 66 50 32 41 56 44 39 50 62 68 53 38 32 36 42 37 47 52
4 4 4 4 3 3 3 3 3 3 2 2 2 2 2 2 2 2 2 2 2 2 2 2 2 2 3 5 7 9 10 9 8 8 7 5 7 10 14 17 18 24 29 28 26 25 27 39 53 66 82 88 81 81 82 77 79 89 92 96 99 97 98 95 88 86 85 82 78 81 81 54 31 45 53 42 49 51 52 69 56 32 29 33 40 41 48 53
4 4 4 4 3 3 3 3 3 2 3 2 2 2 2 2 2 2 2 2 2 2 2 2 2 2 2 4 6 10 9 8 8 9 9 7 7 10 13 17 19 25 28 29 28 26 26 32 45 58 72 83 83 83 86 82 81 92 97 97 98 98 98 91 85 86 91 87 75 82 85 59 42 48 53 50 57 55 46 64 59 33 32 33 37 44 51 55
4 4 4 4 3 4 3 3 3 2 3 2 2 3 2 3 2 2 2 3 3 3 3 3 3 2 2 3 6 9 8 9 11 10 10 8 8 10 13 18 22 26 28 31 30 27 27 28 38 48 59 77 83 82 87 88 88 94 98 97 94 95 99 95 88 87 92 89 81 85 72 52 52 50 53 54 54 58 49 57 57 39 40 35 34 47 51 51
4 4 4 4 4 4 3 3 3 3 3 2 3 2 2 3 2 3 3 3 3 3 4 4 3 3 3 2 4 7 8 11 13 11 10 9 9 10 14 18 23 27 30 33 33 30 28 28 36 43 54 75 85 86 90 92 88 88 95 98 95 95 97 97 95 94 93 89 90 87 61 48 55 46 50 51 49 57 47 50 52 39 42 34 34 47 48 46
5 5 4 4 4 4 4 3 3 3 3 3 3 3 3 3 2 3 3 3 4 4 5 5 5 4 4 4 3 5 9 11 12 14 13 9 9 11 14 19 23 29 32 34 36 34 29 28 32 41 55 69 82 91 92 90 84 80 89 96 97 97 97 96 96 98 92 88 86 73 60 61 52 38 48 49 51 59 43 45 50 38 36 30 36 49 49 47
5 5 5 4 4 4 4 4 3 3 3 3 3 3 3 3 3 3 3 4 4 5 5 5 7 7 6 6 5 5 7 10 12 16 17 11 9 9 13 19 23 29 33 37 38 37 32 28 29 39 56 66 76 88 85 82 80 74 78 88 98 99 98 97 95 95 90 89 86 69 69 73 46 31 50 51 54 60 40 39 47 38 30 28 39 51 56 50
5 5 5 5 4 4 4 4 4 3 3 3 3 3 3 3 3 3 4 4 4 5 5 6 7 9 9 8 8 7 5 8 12 17 21 16 10 8 10 17 23 28 33 38 40 40 34 29 30 37 55 66 68 80 85 80 79 78 72 77 93 100 98 98 96 96 93 89 86 76 77 75 46 32 51 56 55 55 38 33 39 35 28 27 38 49 58 50
6 6 5 5 5 5 4 4 4 4 4 3 3 3 3 3 3 3 4 5 5 5 5 7 8 9 11 10 10 9 6 7 10 16 23 21 13 9 8 12 20 27 32 37 40 41 37 32 29 34 58 71 66 76 89 85 82 81 72 70 84 97 99 99 99 97 95 92 86 81 77 74 58 41 50 59 58 56 38 28 32 30 26 26 34 44 51 42
6 6 5 5 5 5 5 5 4 4 4 4 3 3 3 3 3 3 4 6 7 7 7 7 9 10 12 12 12 11 9 8 8 13 23 25 19 12 8 8 14 24 32 37 39 42 42 35 28 39 66 71 61 70 82 87 90 85 78 75 79 91 99 100 101 97 95 95 92 86 79 76 65 45 50 58 58 60 40 24 29 28 26 26 28 38 44 36
6 6 6 6 5 5 5 5 4 4 4 4 3 3 3 3 3 4 5 7 9 8 8 8 11 13 13 14 14 13 12 10 8 11 21 27 24 17 11 8 9 17 30 37 39 42 43 38 34 49 69 68 62 69 77 89 95 91 89 81 75 86 96 97 101 99 94 96 96 92 87 83 70 51 54 59 57 58 39 25 30 29 29 28 24 34 42 32
7 6 6 6 6 6 5 5 5 5 4 4 3 3 3 3 3 4 6 8 9 9 8 9 15 19 17 17 17 17 15 13 11 11 18 26 26 23 16 10 7 10 24 35 40 44 44 42 41 49 67 77 80 79 83 92 93 92 91 80 76 84 90 94 101 99 95 96 96 96 94 86 77 63 57 60 60 54 37 26 31 36 33 28 24 28 37 30
7 6 6 6 6 6 5 5 5 5 5 4 4 3 3 3 4 5 7 8 9 8 8 10 19 22 20 19 19 19 17 16 16 14 19 26 26 27 23 15 9 7 14 28 40 44 44 45 43 43 54 70 81 81 82 86 87 90 88 81 82 85 85 92 98 99 99 99 96 97 98 91 87 75 57 59 67 56 42 32 31 41 37 27 24 22 28 30
7 7 7 6 6 6 6 6 5 5 5 4 4 3 3 4 5 6 8 8 7 7 6 10 18 22 21 22 23 23 22 20 18 15 18 26 28 28 29 22 13 8 8 17 33 42 43 46 46 43 44 55 71 79 80 79 80 86 88 88 90 85 85 93 97 98 98 99 99 97 98 97 92 81 60 60 73 64 56 51 38 39 40 28 22 20 22 26
7 7 7 7 7 7 6 6 5 5 4 4 4 3 4 4 6 7 7 7 6 5 5 7 14 20 23 27 29 28 25 21 19 19 20 27 31 30 32 29 19 12 8 9 22 35 42 46 46 45 44 48 59 68 73 76 78 84 89 94 95 90 88 93 97 97 96 98 100 97 96 97 93 88 76 70 78 73 63 68 59 44 44 37 23 22 21 22
8 7 7 7 7 7 6 6 5 5 4 4 3 4 5 5 6 7 7 6 5 4 4 5 8 14 19 26 31 31 29 25 23 23 25 28 33 34 34 33 26 17 11 8 12 24 37 43 46 47 46 48 50 56 65 74 82 88 92 95 94 92 90 92 96 98 98 97 99 98 96 99 96 94 91 78 75 74 65 74 81 63 53 48 34 27 24 18
8 8 7 7 7 7 7 6 5 5 4 4 4 5 5 6 7 7 6 5 5 4 3 4 4 6 12 20 29 31 29 28 25 24 27 30 34 37 36 36 31 22 15 10 7 14 28 38 43 46 48 50 48 51 61 74 84 85 89 93 89 86 86 88 92 95 96 95 97 100 98 100 98 95 94 82 71 71 68 71 80 77 64 52 42 35 29 19
8 8 7 8 7 7 7 6 5 5 5 5 5 5 6 7 7 6 6 4 4 4 3 3 4 3 7 14 24 31 31 29 27 26 27 30 34 38 38 36 33 26 19 13 8 8 17 30 39 42 46 52 52 52 60 75 84 83 86 90 86 84 85 86 88 90 93 94 96 99 99 100 98 97 95 89 80 74 73 71 70 75 68 54 47 40 32 24
8 8 8 8 7 8 7 5 5 5 5 6 5 6 7 6 6 5 4 4 4 4 3 3 3 3 5 10 18 26 29 27 27 26 25 28 33 37 39 37 34 28 22 17 11 6 9 19 29 36 41 49 53 51 56 73 84 85 86 84 80 81 79 80 84 84 86 92 97 95 97 101 99 99 97 94 90 77 70 69 67 70 66 54 49 42 38 35
8 8 8 8 8 8 6 6 6 6 6 6 6 7 7 6 6 4 2 4 3 4 5 3 3 4 4 8 14 21 25 25 27 26 23 26 31 37 40 38 35 29 24 20 15 9 7 10 19 29 33 40 50 52 54 68 79 84 88 83 82 84 77 73 76 78 79 85 93 91 90 99 100 98 100 98 94 83 68 62 64 69 67 56 47 42 47 47
9 9 9 9 9 8 7 7 6 6 7 7 8 8 6 5 3 2 10 18 18 19 17 6 4 9 8 9 11 17 20 18 23 24 20 23 29 36 39 37 35 29 24 22 17 12 7 7 15 22 30 35 38 46 55 69 74 75 83 88 87 87 79 73 71 70 77 87 94 93 89 94 98 97 99 99 95 91 81 68 62 64 66 63 49 37 46 50
9 9 9 9 9 8 7 7 7 8 9 8 8 7 7 10 13 18 34 44 41 40 33 13 9 13 13 12 11 13 18 22 30 27 20 22 26 33 38 37 33 30 27 22 20 19 10 7 9 15 42 57 43 40 50 62 72 69 72 85 90 84 77 73 70 67 73 84 90 92 92 92 96 99 99 101 99 93 88 81 70 61 61 67 59 45 50 57
10 10 10 10 9 8 7 8 8 10 10 9 8 8 13 26 40 51 63 63 49 39 30 16 13 13 9 12 12 10 14 29 41 34 22 20 25 33 37 37 33 33 32 24 25 29 15 10 11 10 37 57 48 48 51 55 70 73 66 73 85 88 83 75 73 72 72 78 84 89 95 93 94 99 98 100 100 90 85 86 80 67 59 64 65 57 60 62
10 11 11 11 10 8 8 8 10 11 10 9 8 12 26 45 60 69 74 67 49 40 36 23 15 14 9 8 12 11 10 19 31 34 29 22 25 32 36 38 32 30 34 25 28 39 25 16 20 26 43 49 46 55 62 67 78 84 79 76 80 88 91 84 76 76 77 81 86 88 93 93 90 95 98 99 101 96 89 87 85 74 59 58 62 59 59 58
12 12 11 12 10 9 9 9 11 13 11 8 9 19 41 59 62 61 64 57 48 54 54 35 17 12 10 6 8 10 8 11 16 25 33 26 25 32 35 41 35 29 32 25 32 45 38 24 19 39 63 59 60 73 73 75 78 85 94 88 81 79 80 83 81 81 83 85 85 81 85 90 87 88 91 92 97 101 96 89 87 80 63 54 57 56 55 52
12 12 12 12 11 9 10 12 13 14 11 8 10 28 54 65 57 53 60 58 60 68 60 44 28 15 15 14 15 16 11 18 26 32 40 31 25 32 34 38 39 36 32 26 34 40 39 47 44 53 59 38 50 79 79 78 74 82 103 96 82 77 69 71 76 79 81 80 78 76 77 85 86 85 86 87 91 98 99 92 87 85 74 59 53 54 53 49
13 14 13 13 11 10 10 14 16 14 11 7 13 37 62 66 55 55 65 66 72 75 63 63 55 36 42 48 53 58 43 39 38 31 39 38 25 29 35 39 42 44 46 46 53 47 42 58 59 55 47 23 33 58 66 79 72 70 98 99 83 80 74 67 62 65 73 71 69 71 75 82 85 86 89 89 89 93 98 97 89 86 81 67 56 53 53 48
14 14 14 13 11 10 10 14 17 14 12 8 17 47 66 64 55 57 65 65 66 63 57 70 68 53 70 80 82 89 75 70 59 29 37 54 40 30 37 44 43 51 67 65 63 61 50 49 49 46 40 31 38 38 39 66 69 62 87 99 89 85 80 70 54 50 62 64 61 65 75 84 86 86 90 91 89 88 92 97 96 91 83 69 58 54 52 47
15 14 15 14 11 11 12 16 17 14 12 8 19 53 70 64 59 62 67 64 61 58 53 60 58 54 72 84 89 94 86 91 83 51 56 74 62 49 48 46 44 60 81 73 66 75 67 55 54 52 43 38 43 34 26 51 68 68 78 83 82 85 85 83 71 57 57 58 56 62 75 88 91 88 90 91 89 88 86 88 94 97 91 73 58 55 53 47
15 16 16 14 12 12 14 17 17 14 12 8 24 63 79 70 68 71 68 61 59 62 60 55 51 53 62 72 83 87 83 88 82 70 80 85 75 75 74 62 54 66 83 78 77 86 81 71 64 57 53 49 46 37 27 37 56 63 67 66 66 74 83 89 83 65 60 66 68 69 75 84 88 89 90 87 84 85 82 78 81 92 98 83 64 59 58 53
16 18 16 14 13 14 16 18 16 14 11 8 24 62 79 70 69 67 50 44 52 58 60 61 61 61 60 64 72 73 77 85 80 77 84 83 80 85 90 84 72 75 86 83 82 86 80 74 66 58 61 58 49 42 30 28 42 52 58 59 53 53 67 79 78 64 59 68 75 79 82 78 77 83 84 80 80 82 79 74 73 84 95 89 76 71 69 64
16 17 16 14 15 20 22 18 15 15 11 8 23 54 68 58 55 50 28 27 48 58 60 63 65 69 67 67 71 68 69 76 76 78 82 82 83 84 89 90 83 87 89 76 76 84 78 70 65 62 66 63 51 42 32 25 33 40 43 47 40 36 45 57 70 78 72 64 63 72 85 84 78 78 77 73 74 75 73 72 71 76 85 86 82 81 78 73
16 18 17 14 18 27 26 17 15 16 8 10 30 56 65 59 57 47 21 16 35 54 68 72 68 72 72 70 73 69 67 68 68 74 82 83 82 85 89 88 85 81 69 63 77 86 78 71 71 66 66 64 50 40 35 27 26 33 37 40 41 41 43 41 53 79 85 70 56 55 72 84 80 74 69 67 68 70 73 75 73 74 80 83 82 82 80 76
16 18 16 15 23 29 23 16 17 16 9 17 50 74 73 74 75 51 20 17 31 50 71 77 72 71 70 71 72 67 65 65 62 66 78 83 82 85 86 82 82 74 56 64 84 82 72 72 71 65 62 64 57 47 43 31 19 24 32 35 36 43 52 49 50 63 66 63 56 48 56 73 78 74 72 70 71 73 74 73 73 73 75 78 79 79 79 79
16 16 16 23 37 32 19 17 18 16 11 16 53 82 78 81 86 54 22 23 38 55 69 75 77 75 72 73 69 61 60 59 61 69 75 79 81 83 82 77 80 76 63 70 81 77 74 74 73 70 62 60 60 55 52 41 22 21 32 36 32 37 50 52 54 60 60 63 65 55 50 59 70 78 82 82 80 79 74 68 68 69 68 70 71 71 75 79
16 15 15 28 47 39 19 18 18 15 14 20 53 86 83 79 81 65 45 38 44 56 59 64 77 78 76 80 75 68 64 60 65 75 77 79 83 86 85 80 74 67 62 70 79 80 78 75 75 74 64 59 61 58 55 47 29 22 33 36 29 35 47 51 56 63 67 76 79 69 62 61 64 72 79 83 83 81 75 67 66 68 67 66 63 61 66 71
16 15 13 24 45 42 22 18 18 14 23 44 71 91 82 61 59 69 67 53 48 53 55 64 76 78 79 83 82 76 70 72 77 78 80 88 90 85 83 81 72 63 64 75 83 83 79 76 77 76 70 64 63 63 59 49 37 31 35 38 33 35 45 52 58 57 60 71 74 70 70 67 65 67 70 76 79 77 72 68 69 72 68 65 61 57 57 61
15 14 13 20 39 42 25 20 19 14 33 66 86 97 86 55 46 66 74 63 56 55 65 79 76 73 78 77 81 85 76 77 83 77 81 93 94 86 79 78 75 67 65 69 72 77 77 74 73 73 69 61 59 69 68 53 43 36 36 37 34 31 34 42 55 57 53 57 62 66 70 70 70 69 67 71 75 75 72 66 65 67 64 61 59 54 52 54
14 15 16 22 42 45 27 22 21 16 36 70 87 95 92 63 40 49 65 69 61 48 57 73 58 56 76 74 74 83 76 74 83 85 88 90 89 84 75 74 75 65 56 53 55 67 73 69 66 66 67 66 65 71 70 60 49 40 38 38 31 29 30 32 44 53 49 49 57 64 65 69 73 68 63 64 66 68 70 65 60 64 65 60 54 53 52 53
12 16 20 26 41 45 34 29 24 21 40 68 85 90 92 80 52 38 45 47 35 20 31 55 54 53 75 76 66 73 75 77 88 94 92 83 75 71 68 71 71 58 53 51 49 59 66 62 62 65 71 74 71 69 67 60 49 39 39 40 36 36 37 36 41 47 46 47 55 59 59 62 66 63 62 62 60 62 66 66 66 67 68 63 58 58 59 61
12 17 21 22 33 44 45 33 21 33 55 69 84 87 85 91 76 51 41 27 16 12 15 34 48 49 63 73 72 78 82 83 88 90 90 88 80 67 62 69 69 60 57 52 46 51 53 52 54 58 68 75 70 68 69 59 47 41 41 43 44 44 45 47 45 42 43 44 48 53 53 55 59 62 64 63 62 66 67 67 69 67 67 71 70 67 71 78
11 15 20 27 39 47 51 40 33 63 86 80 85 83 71 86 91 71 48 19 5 9 5 14 29 36 56 74 77 85 90 89 91 85 81 91 91 75 61 60 62 58 51 44 43 45 45 52 54 50 62 78 73 66 68 58 48 49 49 48 54 56 55 57 52 43 43 46 49 53 50 49 53 55 57 57 58 63 63 59 58 57 63 74 75 73 76 81
9 14 23 35 44 48 61 68 62 83 104 94 89 80 62 74 96 92 71 38 19 18 14 17 26 36 62 77 76 84 89 83 83 76 72 82 85 76 62 52 52 51 40 33 37 40 45 58 56 43 48 64 69 75 80 65 53 62 66 60 67 73 64 60 58 50 46 48 53 56 52 50 48 43 44 49 47 47 51 52 48 46 58 72 72 73 76 75
7 14 25 33 38 41 60 76 71 80 96 90 86 83 71 78 95 99 90 67 48 39 26 24 34 42 53 55 52 61 64 64 73 73 66 66 65 61 55 47 47 47 38 32 31 35 47 54 46 37 37 42 54 77 89 75 65 75 77 69 78 81 64 57 61 57 50 49 50 50 51 53 49 42 43 45 39 34 37 42 44 45 56 66 67 68 72 73
7 13 19 24 31 37 49 65 76 88 91 81 82 82 70 75 87 86 82 69 52 41 27 23 38 47 40 29 29 36 38 47 63 66 60 59 59 61 66 69 68 59 47 38 29 30 42 45 37 33 33 34 45 62 75 80 83 85 81 79 83 79 64 59 63 60 56 54 51 50 55 56 51 46 46 45 41 38 36 38 43 47 51 56 63 68 71 73
9 12 13 16 27 40 54 66 76 88 85 71 73 70 56 62 71 63 61 54 38 30 21 16 27 35 25 18 22 27 28 30 36 43 50 56 59 61 70 81 84 76 63 50 38 32 35 38 34 30 27 29 42 57 71 88 97 91 85 87 84 76 70 67 63 62 61 58 55 56 59 55 46 43 48 51 49 46 45 45 46 49 50 51 54 57 61 69
11 13 13 13 21 36 55 65 70 86 93 77 69 68 58 59 60 50 46 41 27 19 13 11 20 22 15 16 19 22 25 21 18 24 34 44 50 52 56 64 71 70 62 55 51 47 42 41 39 32 28 29 40 58 76 91 99 95 89 89 84 79 79 74 64 61 61 61 61 60 56 51 43 39 47 55 56 52 50 51 52 52 54 58 56 52 54 65
Wind_Speed
12 11 10 9 9 9 9 9 9 9 9 10 10 10 11 12 12 12 12 12 13 13 13 13 14 15 15 15 15 14 13 13 12 13 14 13 18 22 22 20 18 18 18 17 17 16 14 14 14 12 11 9 8 6 6 5 5 5 3 1 7 12 14 17 18 18 16 13 12 11 12 11 9 8 8 9 8 9 9 7 6 6 6 7 8 10 9 11
12 11 11 10 10 10 10 10 10 10 10 10 10 11 11 12 13 13 13 14 14 14 15 15 16 16 16 17 17 16 15 15 15 15 14 15 19 22 22 22 21 19 18 18 17 16 15 14 14 13 12 10 9 7 6 6 5 5 3 1 7 12 14 16 18 18 15 14 13 12 12 10 9 10 9 9 9 8 8 7 6 6 7 6 8 9 9 10
13 12 11 11 11 11 11 10 10 10 10 10 10 11 11 12 13 14 14 15 16 16 17 17 17 18 18 18 18 18 18 17 17 16 15 17 21 21 22 23 22 20 19 19 18 17 15 15 15 14 13 11 10 8 5 5 5 6 5 4 9 14 15 17 20 20 17 15 14 13 13 11 9 9 8 8 9 10 8 8 7 6 8 7 7 9 9 8
13 13 13 12 12 12 12 11 11 10 10 10 10 11 11 12 13 14 15 16 17 18 18 19 19 20 20 20 21 20 21 20 18 18 18 19 21 22 22 23 23 21 20 19 18 17 16 16 16 15 13 11 10 8 7 6 7 7 6 8 13 16 18 21 22 21 18 16 15 14 12 10 9 8 8 8 10 10 8 8 9 8 9 9 8 8 9 8
14 14 14 14 13 13 13 12 12 12 11 11 11 11 12 12 13 14 15 16 17 19 20 21 22 22 22 22 23 23 23 22 20 21 21 21 22 23 23 23 23 22 21 20 19 17 17 17 17 15 12 10 10 8 8 7 9 8 7 10 15 17 19 21 20 18 18 16 15 15 13 10 8 8 8 8 10 10 8 8 8 8 9 11 8 6 7 7
16 15 15 15 15 14 14 14 14 13 13 13 13 13 13 13 13 14 15 16 17 19 21 22 24 24 25 25 25 25 26 25 22 23 24 23 24 24 24 24 24 23 22 21 20 18 18 18 18 15 12 11 11 9 8 8 8 9 8 10 14 15 17 17 16 15 14 12 13 15 14 11 9 8 8 7 9 10 9 9 8 8 9 10 8 6 6 5
17 17 16 16 16 16 15 15 15 15 15 15 15 16 16 16 16 16 16 16 17 19 20 23 25 26 27 27 28 27 29 28 24 25 27 26 26 26 26 26 25 24 23 22 21 20 19 19 19 16 13 13 12 9 8 9 9 7 8 9 13 14 16 17 18 17 14 13 14 15 13 10 10 9 8 7 9 9 9 9 8 8 8 8 8 6 5 4
19 18 17 17 17 17 17 17 17 17 17 18 18 18 19 19 20 19 19 18 18 18 20 22 25 27 29 30 30 30 33 30 25 26 28 28 28 28 28 28 26 25 25 24 22 21 20 20 19 17 15 14 13 10 8 9 9 7 8 6 9 14 16 19 21 19 18 17 17 18 14 9 10 11 9 9 9 9 10 9 8 9 9 8 7 6 5 4
20 19 19 18 18 18 18 18 19 19 20 20 20 21 21 22 22 22 21 21 20 19 19 21 23 26 29 31 33 34 35 32 26 28 30 30 30 30 30 30 28 26 25 24 23 21 21 22 20 18 16 15 13 11 9 9 10 7 8 7 4 12 16 18 22 22 21 18 17 18 13 9 10 11 11 10 9 9 10 10 10 10 9 8 7 6 5 4
21 20 20 19 19 19 19 19 20 20 21 22 22 22 23 23 23 23 23 22 21 21 20 20 21 23 27 30 33 36 36 33 29 29 31 33 32 32 32 32 30 28 27 25 23 21 22 23 21 19 17 16 14 11 10 10 11 10 7 8 4 9 15 20 22 22 22 19 18 17 11 10 11 11 11 10 9 9 10 11 11 11 10 9 7 6 4 3
22 21 21 20 20 20 19 20 20 21 22 22 23 23 24 24 24 24 23 22 21 21 21 20 21 21 24 26 31 35 35 34 31 29 33 36 35 34 34 33 32 30 28 26 24 22 23 24 22 20 18 18 15 10 11 11 10 10 9 8 6 7 14 20 22 20 21 20 20 17 12 10 10 11 11 11 10 9 9 11 12 11 10 9 9 6 4 3
22 22 22 21 21 20 20 20 21 21 22 22 23 24 24 24 24 24 23 22 21 21 21 21 21 21 22 23 26 28 31 35 32 31 35 38 37 36 35 35 34 32 30 28 26 24 24 24 22 20 19 19 16 10 10 12 10 11 11 8 6 8 14 18 21 22 21 21 21 17 14 12 10 10 10 11 12 10 9 11 13 11 10 10 9 7 5 3
23 22 22 22 21 21 21 21 21 22 22 23 24 24 24 24 24 24 24 23 21 21 21 21 22 21 22 21 22 22 27 35 34 33 36 39 39 38 37 37 36 34 32 30 28 27 25 23 22 21 19 18 17 13 10 11 12 12 11 6 6 5 15 18 20 24 23 23 22 17 14 13 11 11 11 11 12 10 9 11 13 12 10 11 10 8 6 4
23 23 23 22 22 22 21 22 21 22 22 23 24 24 25 24 24 24 24 23 21 21 21 21 22 21 22 21 20 20 24 31 33 36 39 40 40 39 38 38 37 36 35 33 31 28 25 23 22 20 19 19 19 16 10 8 11 12 10 8 7 4 9 18 18 22 24 22 21 17 14 13 11 11 12 12 12 11 10 11 13 13 11 11 11 9 7 5
23 23 23 23 22 22 22 22 22 22 23 23 24 24 25 25 25 24 23 23 21 21 21 21 22 21 22 21 20 20 23 25 29 36 40 39 40 40 39 38 38 38 37 36 33 29 26 22 20 19 20 21 20 18 14 9 7 9 9 10 8 6 2 11 17 21 24 22 21 18 15 14 12 11 12 13 12 11 10 11 13 13 12 12 11 10 8 6
23 24 23 23 23 22 22 22 22 22 23 24 24 24 25 25 25 24 23 22 21 21 21 21 21 21 21 21 20 20 20 21 24 33 38 39 40 41 40 38 38 38 39 38 35 31 28 22 17 18 21 22 21 19 16 10 6 6 6 7 8 5 6 2 14 21 23 22 21 19 17 16 13 12 13 13 13 12 10 12 13 13 12 12 10 10 9 7
24 24 23 23 23 23 23 23 23 23 24 24 25 25 25 25 24 24 23 22 21 21 21 21 20 20 20 19 19 19 18 18 20 29 36 38 40 41 40 39 37 38 39 39 36 33 30 24 19 20 23 23 22 21 16 11 9 8 7 7 8 6 6 5 6 18 21 20 19 18 17 17 14 13 13 14 13 13 11 12 13 13 12 11 10 9 9 8
23 24 23 23 23 23 23 23 23 23 24 24 25 25 25 25 24 23 23 22 21 20 19 19 18 19 19 19 19 18 17 17 17 25 33 36 39 40 40 39 38 37 38 38 37 34 32 28 25 25 26 25 23 22 18 14 12 10 8 8 8 6 4 6 1 12 17 18 18 18 18 17 16 16 15 14 14 13 13 13 14 13 12 11 10 10 9 8
23 24 23 23 23 23 23 23 23 24 24 24 24 24 25 24 23 22 22 21 20 18 18 18 18 19 19 18 17 17 16 16 17 23 30 33 36 38 38 39 38 37 36 37 37 36 34 31 29 26 24 24 22 20 18 16 14 11 8 8 7 6 5 4 2 5 11 16 18 18 19 19 18 17 15 15 15 15 15 15 14 14 13 12 11 10 9 8
23 24 24 23 23 23 23 23 23 24 24 24 24 24 24 23 22 21 20 19 18 17 17 17 17 18 19 17 16 17 17 16 17 21 27 31 33 35 37 38 38 37 35 35 37 38 37 33 30 27 22 20 21 20 18 17 15 12 9 7 7 6 6 5 3 4 8 14 19 20 21 21 21 20 19 18 18 18 17 15 14 14 14 13 12 11 10 9
23 24 24 23 23 23 23 23 23 24 24 24 23 23 23 22 20 19 19 18 17 16 16 17 16 17 18 17 17 18 17 15 16 19 23 27 30 32 35 37 36 36 34 33 35 38 38 35 32 28 24 21 20 20 19 17 16 13 9 6 8 8 8 7 5 5 6 10 17 21 22 22 23 23 22 20 21 20 19 18 16 15 15 14 14 13 12 10
23 24 24 23 23 22 22 23 23 24 24 23 23 23 22 21 19 18 18 18 17 16 15 16 16 16 17 17 17 17 16 15 16 17 20 24 27 30 33 34 34 33 33 34 35 38 38 36 33 30 27 24 21 20 19 17 16 14 9 7 9 9 9 9 8 6 6 7 12 17 21 22 22 24 23 22 22 20 19 19 18 17 16 15 15 14 13 12
23 24 23 23 23 22 22 23 23 23 23 23 23 23 21 20 19 18 17 17 15 15 14 14 15 14 15 15 15 16 15 15 15 16 18 21 25 29 31 32 32 32 32 33 34 36 37 35 33 31 28 26 24 23 20 17 15 13 11 9 9 9 8 9 9 7 5 7 9 12 18 21 21 23 25 24 23 21 20 19 18 17 17 17 16 15 14 14
24 23 23 23 22 22 22 22 23 23 22 23 22 21 20 19 18 17 16 14 12 11 12 11 12 12 13 13 13 14 15 14 15 15 16 20 24 26 28 29 30 30 31 32 32 33 34 34 32 30 28 27 27 26 21 18 15 11 11 11 10 9 9 10 10 9 7 7 8 10 14 18 19 20 24 26 25 23 22 20 19 17 17 17 17 17 16 15
24 23 23 23 22 23 22 22 22 22 22 22 21 20 19 17 16 15 14 11 8 6 6 7 8 8 10 11 12 13 13 14 15 14 15 19 22 23 26 27 27 28 29 29 30 30 30 32 32 31 28 27 28 27 22 19 16 11 10 12 11 11 11 11 11 10 10 9 8 8 9 12 14 16 21 26 25 23 23 22 21 19 18 17 16 17 16 15
24 23 23 23 23 22 22 22 21 21 22 20 19 19 17 16 14 11 10 7 3 3 6 6 5 5 7 9 10 11 12 14 13 13 14 16 19 22 25 26 25 25 27 27 27 28 28 28 31 31 24 21 28 30 24 21 19 17 15 13 12 13 13 14 12 10 10 9 7 8 8 9 11 14 20 25 26 25 26 24 21 20 18 17 16 16 16 14
24 24 23 23 23 22 22 21 20 20 19 17 17 16 14 13 11 9 10 7 4 8 11 7 5 3 5 7 9 9 10 10 9 10 13 14 17 21 23 23 23 22 24 27 24 23 26 25 28 31 23 19 27 30 27 23 20 20 20 14 11 13 15 15 14 12 11 9 7 7 8 10 9 10 16 25 30 27 27 26 21 20 19 16 16 16 14 14
24 24 23 23 23 22 21 20 19 19 17 16 15 14 12 10 10 11 11 10 10 13 12 8 5 3 4 5 6 6 6 7 6 7 10 14 15 18 21 21 24 22 19 24 22 19 23 22 23 29 28 25 26 26 24 23 20 19 20 17 11 11 12 14 14 12 11 10 9 8 6 10 9 5 6 18 31 30 28 27 21 19 20 18 17 15 14 14
24 23 23 23 22 22 21 19 19 17 16 15 13 12 11 8 10 10 8 9 13 15 14 12 8 4 3 4 4 4 5 6 6 4 6 12 14 17 20 19 23 26 21 22 20 15 18 22 22 22 22 23 24 25 23 20 18 14 14 16 14 12 11 10 11 10 10 11 9 7 5 7 8 5 4 7 24 32 28 25 23 21 19 19 18 17 15 15
24 23 23 22 22 21 20 18 17 16 14 13 11 10 10 9 9 9 10 10 11 15 15 11 8 4 3 3 3 2 3 4 4 2 3 8 13 16 18 17 21 25 24 24 21 16 15 19 22 20 17 20 23 25 22 20 20 13 9 15 15 16 16 11 9 8 8 11 11 8 5 5 6 6 5 4 11 24 27 24 23 21 19 18 19 18 17 15
23 23 22 22 21 20 19 17 16 14 12 11 10 8 8 7 8 12 17 14 9 12 13 10 10 5 2 1 2 1 1 3 2 2 3 6 11 15 16 16 16 17 20 23 20 18 18 15 19 22 25 29 31 29 23 20 24 20 12 18 17 16 16 15 14 10 7 10 11 9 7 6 5 5 6 3 2 12 20 23 22 20 19 18 18 18 17 17
23 23 22 21 20 19 18 16 15 12 9 9 8 7 5 5 9 16 19 14 9 11 8 10 13 5 8 10 3 2 5 3 5 3 4 5 8 13 14 14 15 13 12 16 14 17 23 24 23 26 29 32 31 32 28 24 27 26 20 21 22 18 16 15 18 15 12 12 11 10 9 7 6 4 4 4 3 4 10 19 23 21 20 20 19 18 18 18
23 23 21 20 19 18 17 15 13 10 8 7 6 5 3 4 13 19 16 9 8 9 5 8 9 6 12 15 5 2 6 2 3 1 5 5 4 9 11 12 16 14 9 11 13 16 23 25 24 24 26 26 23 26 28 25 26 27 25 22 21 20 17 15 15 16 17 17 13 13 12 8 7 6 4 4 5 5 5 11 18 21 22 22 22 21 20 19
23 22 21 20 18 17 16 14 12 10 7 6 5 4 4 2 11 15 8 7 5 6 5 5 3 5 9 8 4 2 3 1 5 1 7 5 3 7 9 11 14 13 8 10 12 11 13 16 18 19 19 18 16 21 23 23 21 20 21 23 22 20 18 12 11 14 16 17 16 13 11 9 7 8 7 5 5 6 6 6 9 16 23 26 24 23 22 20
22 21 20 19 17 16 15 12 11 9 7 6 4 4 3 1 5 4 4 4 8 7 4 4 3 5 7 4 4 6 4 1 5 2 7 6 7 10 7 4 7 11 12 10 10 10 8 7 10 12 15 15 13 15 19 23 23 18 19 22 21 19 18 11 7 12 14 13 14 12 9 9 8 7 8 7 5 4 6 7 5 8 20 26 23 21 22 21
22 21 20 18 16 14 13 11 9 8 6 6 4 5 4 3 5 1 6 5 4 6 3 8 7 6 6 6 7 9 6 2 1 3 2 4 10 14 11 4 4 12 17 11 9 13 13 11 10 12 16 18 15 13 17 22 23 22 21 20 17 15 16 13 7 12 14 11 12 10 9 12 11 9 9 8 5 4 5 7 4 4 13 20 18 18 19 20
21 20 19 16 14 12 11 10 8 7 6 6 5 5 6 4 3 3 3 2 8 9 7 7 7 0 3 2 4 6 1 4 3 3 3 3 11 15 15 13 10 15 22 15 8 11 12 13 12 12 13 16 17 15 18 21 23 22 19 13 12 13 14 15 12 14 17 15 14 12 9 10 11 11 12 10 7 6 6 7 6 5 10 13 15 16 18 18
20 19 18 16 13 10 10 10 7 6 5 5 5 3 2 4 6 6 2 3 9 8 6 6 6 1 7 7 2 2 3 2 2 5 4 5 13 15 14 17 16 17 22 18 13 16 17 17 11 7 3 10 15 13 16 22 25 23 19 15 14 14 13 13 15 16 15 15 15 14 12 10 8 10 12 12 9 7 7 8 7 8 10 11 12 15 17 18
20 19 17 15 12 9 10 9 6 6 5 5 3 2 1 4 8 7 2 1 3 6 3 2 2 1 3 5 3 1 4 1 1 2 3 4 10 13 11 11 13 17 21 18 17 21 23 23 19 12 6 5 13 10 12 21 25 22 21 20 20 17 12 10 12 14 14 12 14 15 15 11 8 9 10 10 10 9 10 10 9 9 11 12 12 12 14 17
20 19 16 13 10 8 9 8 6 5 5 6 5 3 1 3 1 5 3 2 5 6 5 7 5 3 1 7 6 3 7 6 4 2 7 6 5 10 10 7 9 16 22 21 18 22 24 22 19 15 13 12 11 11 8 16 25 25 24 22 22 20 14 11 10 10 9 8 11 15 16 12 10 8 7 9 10 10 12 12 10 10 12 14 15 13 11 13
20 19 15 11 8 7 8 7 6 5 6 7 6 3 3 5 9 2 7 3 5 1 8 11 8 3 5 6 6 4 6 6 5 3 6 5 5 8 11 12 12 15 23 23 17 23 29 22 16 15 16 15 11 11 8 11 20 25 25 24 21 19 14 11 11 8 5 5 7 13 16 14 12 11 9 10 11 10 12 12 11 12 14 16 18 18 14 12
20 19 17 13 8 7 8 6 5 6 7 6 6 5 5 6 10 2 5 2 4 4 4 4 3 6 11 7 6 7 3 3 6 7 8 9 8 13 14 16 16 13 22 26 20 25 31 22 19 21 21 18 14 9 6 8 16 18 20 23 23 21 18 16 14 8 6 9 10 12 14 14 12 12 11 10 8 8 10 12 12 13 14 16 19 20 19 16
19 19 18 14 10 7 7 5 6 8 7 5 4 4 6 5 8 4 1 3 4 6 4 1 4 9 14 10 9 9 6 9 8 7 14 17 11 13 12 13 14 12 19 25 24 27 29 23 23 24 23 21 19 14 5 7 15 17 15 18 23 22 19 20 19 11 9 14 12 11 13 14 14 13 12 10 7 7 9 13 14 13 14 16 18 20 21 20
19 18 16 14 10 8 7 6 7 9 8 6 3 1 5 7 8 6 4 5 6 9 6 5 6 9 14 14 14 13 10 11 7 3 11 15 10 8 8 11 16 15 15 18 23 29 29 25 25 24 22 21 20 19 13 10 17 22 15 11 15 15 14 16 20 18 17 20 18 14 15 17 18 16 14 13 12 11 12 14 14 14 15 18 19 21 23 23
18 17 15 13 10 9 7 8 9 9 8 8 6 3 2 9 12 10 8 9 9 7 6 6 4 8 16 17 16 14 9 9 9 6 7 8 8 8 8 11 15 16 14 14 19 28 30 29 28 25 22 23 23 22 19 17 20 25 22 14 15 17 13 14 19 20 19 21 21 18 17 19 21 20 16 15 14 13 14 14 14 14 17 21 22 23 25 27
18 16 16 16 12 8 7 9 9 6 7 8 8 4 4 6 13 9 8 13 12 8 8 6 4 7 12 14 13 10 5 6 10 11 8 3 5 10 9 10 13 14 14 12 14 24 29 29 30 27 23 24 26 24 21 21 23 26 25 20 17 21 22 17 17 21 21 20 21 22 22 22 23 23 19 16 14 14 14 15 15 15 16 20 23 23 23 25
18 17 17 16 14 8 7 9 7 2 7 11 10 7 8 7 9 7 6 12 10 7 8 7 7 6 4 6 9 9 7 7 10 13 14 10 5 9 9 8 9 11 14 13 12 19 26 26 25 28 29 27 24 24 23 24 24 22 22 23 17 19 23 18 19 24 22 19 19 23 25 24 24 26 24 19 16 16 16 18 18 16 14 17 22 23 22 21
18 16 15 14 14 11 8 8 7 6 6 12 13 12 11 8 5 5 6 9 8 7 8 9 7 5 3 6 10 13 14 14 13 12 16 17 12 11 10 8 8 10 13 13 12 18 24 25 23 26 31 30 26 23 22 25 24 19 21 26 20 20 24 22 23 24 23 22 23 24 26 25 25 27 27 24 21 19 19 19 20 19 15 14 19 22 21 21
18 15 13 13 15 14 12 12 9 10 12 14 13 10 10 6 5 7 8 7 7 7 9 11 7 6 8 10 11 13 13 12 11 11 13 14 12 11 11 8 8 10 12 14 16 19 22 25 25 24 25 30 31 27 23 25 25 21 26 30 23 22 27 26 22 21 24 27 27 26 26 27 27 27 27 27 25 23 22 21 21 21 19 16 17 21 23 23
19 15 14 15 15 15 16 15 11 13 15 15 13 11 11 8 8 13 13 9 10 10 9 10 9 8 12 12 9 10 10 8 9 10 11 10 8 7 5 4 7 10 12 16 19 19 21 23 25 24 22 26 33 34 29 27 25 24 29 31 26 24 29 29 25 23 24 26 27 27 27 27 28 27 27 27 25 24 24 24 23 22 23 23 19 18 21 25
19 16 16 15 14 14 16 15 14 16 17 15 13 14 14 11 10 14 14 11 11 12 11 10 8 9 12 13 11 9 9 9 10 10 11 11 10 9 8 7 9 9 10 14 16 15 17 20 22 23 22 24 31 33 28 25 21 23 27 30 29 26 27 30 30 28 26 26 27 29 30 30 30 29 27 26 25 24 24 25 26 24 24 26 25 20 20 24
19 17 16 15 14 15 16 17 16 15 14 15 14 13 13 13 13 13 12 12 11 12 13 10 9 11 12 11 10 9 8 9 9 8 10 10 9 9 10 10 10 8 8 9 9 10 11 12 15 19 21 24 30 30 26 23 20 22 26 29 29 24 23 30 35 33 31 30 30 33 36 37 36 34 31 27 24 24 25 27 27 25 23 24 26 23 19 19
Wind_Direction
348 346 345 342 338 334 328 325 319 315 310 306 302 298 295 291 289 285 281 278 274 269 265 260 255 250 248 246 243 239 238 236 230 227 227 221 217 220 220 217 214 217 221 220 220 222 223 226 228 229 228 237 246 260 287 298 328 339 331 72 148 156 157 160 161 161 165 169 166 165 169 172 165 161 163 169 174 172 177 174 164 163 161 150 132 126 119 116
349 346 345 341 338 333 330 327 323 320 314 309 304 299 295 291 289 285 280 277 273 269 264 260 255 250 246 244 242 238 235 234 232 230 225 218 220 223 221 218 214 216 221 221 222 221 220 227 229 227 227 234 241 248 279 287 310 316 289 218 167 168 166 169 168 167 171 170 167 168 173 178 168 163 167 170 172 172 175 176 171 161 159 153 136 131 124 118
349 347 344 341 337 334 332 329 326 323 319 314 308 302 296 292 289 286 282 277 273 269 264 260 256 251 246 242 240 237 233 231 231 231 226 219 221 224 222 220 215 216 221 222 222 221 217 224 229 228 225 229 237 248 275 280 292 290 263 216 188 182 180 178 174 174 177 170 170 174 174 178 173 166 170 171 166 169 180 178 173 161 155 156 147 140 131 119
350 347 344 341 339 336 334 332 330 326 323 319 314 308 301 296 291 287 284 279 274 270 265 261 257 253 248 242 238 235 233 230 227 230 229 222 223 224 224 222 217 216 220 222 223 222 219 222 228 229 226 230 235 252 270 273 286 277 253 228 205 196 191 185 180 180 177 170 171 175 172 171 172 173 172 167 161 169 185 181 170 164 155 154 156 147 134 123
351 348 345 343 340 339 337 335 333 331 329 324 320 315 310 304 298 292 287 281 276 271 267 262 258 254 249 244 239 234 233 229 222 227 230 224 224 224 225 223 218 216 219 222 223 221 220 222 227 227 229 231 232 252 260 263 283 274 255 237 215 205 196 186 182 181 176 171 173 171 166 168 172 174 174 169 167 170 185 188 175 168 159 154 158 151 136 132
352 349 346 344 342 340 338 336 334 333 331 328 326 322 319 315 308 302 295 287 280 273 268 263 259 255 251 246 241 235 233 229 219 223 229 225 224 223 224 224 219 216 218 221 222 221 220 222 226 224 226 226 231 254 256 255 275 272 261 236 217 214 203 184 177 181 179 171 174 174 163 163 168 169 174 175 176 174 183 192 182 174 165 155 156 156 143 138
352 349 346 344 342 339 338 336 334 333 332 331 329 327 325 322 318 313 306 297 287 278 270 264 260 255 251 247 243 238 234 229 215 218 227 225 224 223 222 224 220 215 216 220 220 220 219 221 224 220 220 221 229 255 261 260 267 275 276 238 219 216 200 183 178 181 179 167 170 175 165 160 164 164 169 174 178 178 184 192 185 176 169 159 158 158 145 135
351 349 346 343 341 339 337 335 334 333 332 332 331 330 328 325 323 319 313 306 297 286 276 268 261 256 252 247 244 239 236 231 215 214 225 225 224 223 222 223 220 215 215 219 218 219 219 221 223 219 216 216 225 245 255 259 258 282 303 273 233 215 191 182 184 177 170 166 166 171 170 169 167 161 164 173 178 179 180 185 185 177 169 163 161 161 151 138
350 348 345 342 340 337 335 334 333 332 331 331 331 330 328 326 323 320 316 310 303 294 283 273 265 258 254 248 244 240 238 234 218 213 222 225 224 223 223 223 220 217 215 217 218 217 219 221 221 218 216 213 220 235 246 250 246 267 315 333 274 217 195 185 183 173 167 166 167 173 174 178 176 166 168 175 178 180 178 179 181 176 168 163 157 156 153 143
349 347 344 341 338 335 334 333 332 331 330 330 330 329 328 325 322 319 315 309 303 296 288 279 270 262 257 251 246 242 240 235 220 214 222 224 224 222 222 223 220 217 215 215 216 216 217 220 220 217 216 213 216 233 245 244 242 251 293 336 313 218 199 187 181 174 172 170 171 177 180 182 179 170 170 175 178 182 179 178 179 176 172 162 152 152 151 144
347 345 342 340 336 334 333 331 331 330 330 329 328 328 325 323 320 317 312 306 300 293 287 280 274 267 262 257 251 246 242 237 222 216 225 224 223 223 221 222 220 217 215 214 214 215 216 219 218 214 216 216 214 229 243 237 241 245 261 317 320 212 190 182 182 181 180 177 173 173 177 182 178 172 172 171 176 186 180 177 179 179 176 161 148 151 153 151
346 344 341 338 335 332 331 330 330 329 329 328 326 325 323 320 317 314 310 304 296 289 283 278 274 269 266 263 260 254 246 241 225 215 227 226 223 224 220 221 220 217 215 213 213 214 215 217 217 213 214 221 220 225 240 239 244 244 247 302 327 209 191 182 187 189 181 177 175 171 173 179 176 176 176 168 174 188 185 177 179 182 177 161 150 152 156 161
344 342 339 336 333 331 330 329 329 329 328 326 324 322 319 316 313 311 308 302 294 287 281 276 273 269 267 265 266 264 250 242 227 214 225 227 223 223 220 219 219 217 215 214 213 214 214 213 214 213 212 221 224 220 232 241 243 246 241 274 327 225 193 187 191 191 182 176 177 174 173 174 171 178 178 173 177 185 185 177 178 183 177 162 156 155 161 168
342 340 337 335 332 329 329 328 328 328 326 324 322 319 317 314 311 308 306 301 293 284 279 275 273 269 265 263 263 264 254 245 230 218 224 226 223 223 221 219 218 217 216 215 214 214 215 212 211 211 210 219 224 217 224 238 242 250 248 253 304 343 180 188 192 187 183 181 179 173 171 169 168 179 179 176 180 181 182 180 179 182 177 167 162 160 162 167
340 338 336 333 330 328 327 327 328 327 324 322 320 317 315 313 309 306 303 299 291 283 278 275 273 269 262 258 256 257 256 251 236 224 226 227 224 223 222 220 218 217 216 216 214 212 213 212 211 209 209 217 222 221 223 231 242 246 253 259 276 350 65 189 192 185 183 185 183 174 170 173 172 177 180 181 183 183 183 181 181 181 177 172 169 165 162 163
338 337 335 332 329 328 327 327 327 325 324 321 318 316 314 312 308 305 301 297 289 282 279 276 272 266 257 252 252 256 259 257 242 229 228 229 226 224 223 221 219 217 217 217 214 213 211 206 204 208 211 216 221 225 224 226 240 234 241 256 249 295 6 147 185 186 184 186 187 179 174 178 175 173 182 187 185 184 184 180 180 181 179 177 176 171 165 162
337 335 333 331 329 328 326 326 326 324 323 320 317 315 314 311 308 304 301 296 289 282 278 275 270 261 253 248 250 256 261 261 248 232 229 229 227 225 225 223 220 218 217 217 214 213 210 202 197 202 208 213 219 224 224 227 238 238 236 240 242 264 345 19 173 184 186 188 190 187 183 181 177 174 183 192 188 183 183 181 180 181 181 183 184 180 173 167
336 334 332 330 329 327 326 326 324 323 321 319 317 315 314 312 308 305 300 294 288 282 276 272 264 254 246 243 247 254 260 260 249 234 230 229 226 225 227 225 222 219 218 217 215 213 210 204 199 200 204 208 215 223 225 232 238 244 245 235 242 260 304 350 113 180 188 193 191 191 191 186 180 179 183 192 192 185 183 183 180 181 184 187 191 190 182 173
335 333 331 330 329 327 326 324 323 322 320 318 317 315 314 311 309 306 299 294 289 282 277 270 261 252 247 245 249 257 261 258 249 238 230 227 225 225 227 227 224 221 220 218 215 214 212 207 204 204 204 206 213 221 226 232 237 242 242 228 234 249 261 297 316 191 199 199 194 195 197 192 188 185 184 189 193 190 187 185 181 182 185 188 194 196 189 182
334 333 331 330 329 327 325 324 322 321 319 318 317 315 314 313 311 306 300 295 290 282 276 269 260 255 252 249 249 253 256 257 254 243 232 227 224 223 225 226 225 222 221 219 216 215 213 209 207 205 203 206 212 218 223 227 233 240 240 225 224 234 238 245 262 242 221 206 197 197 201 196 191 188 184 186 193 194 191 187 184 183 185 188 193 196 195 190
334 332 331 330 329 327 325 323 321 321 320 319 317 317 316 314 311 306 302 296 289 281 273 267 261 255 253 248 245 247 252 256 254 245 235 228 223 221 223 225 225 223 222 220 217 216 214 210 208 206 204 206 209 213 219 222 226 231 231 228 228 225 225 232 240 236 238 223 204 201 206 202 193 190 187 186 192 195 191 187 186 186 187 190 191 195 196 193
334 332 331 330 328 327 325 323 322 321 321 320 320 320 319 316 313 309 304 297 289 281 270 263 260 256 252 248 243 245 249 252 251 245 236 229 223 220 221 222 222 222 221 221 219 217 215 211 209 207 206 209 210 211 215 221 225 227 226 231 234 224 220 231 242 245 250 248 222 209 210 209 200 196 194 190 192 196 193 188 189 190 189 191 193 194 195 194
333 331 331 330 328 328 326 323 322 322 322 323 322 322 321 319 315 311 305 297 290 279 268 259 257 256 252 249 244 243 246 249 248 244 236 228 222 218 218 219 220 220 219 221 222 219 215 212 211 210 208 211 215 212 211 219 224 228 230 228 227 225 226 238 250 257 251 244 239 226 220 218 211 205 202 196 192 194 195 193 194 196 192 191 193 194 194 195
333 332 331 329 329 328 326 324 324 324 325 325 325 325 325 323 318 314 306 299 289 275 267 261 259 259 254 249 245 243 244 245 243 240 234 228 222 217 217 218 217 218 218 219 222 221 216 211 210 211 212 214 220 216 212 217 219 225 237 233 228 231 232 239 249 252 248 245 245 244 234 222 215 212 208 202 196 192 193 194 194 199 201 195 191 192 193 195
332 331 330 330 330 328 327 327 326 325 327 329 331 331 330 328 322 315 308 304 294 281 277 272 269 265 257 249 243 241 241 240 238 234 231 227 222 215 213 215 214 215 216 218 221 221 217 212 209 208 210 215 222 220 217 219 214 211 232 237 236 237 231 234 246 247 251 261 257 249 240 218 214 218 213 208 204 195 192 194 194 198 205 202 193 192 195 197
332 331 331 331 330 329 328 328 328 330 332 336 337 335 335 332 327 324 324 319 305 8 8 333 305 277 259 251 243 241 240 240 239 232 229 225 220 216 213 211 210 213 214 214 218 219 216 213 210 205 203 215 222 220 218 218 217 215 222 230 236 238 235 236 243 244 251 267 264 249 240 226 222 225 219 211 206 199 193 193 195 197 202 202 198 197 197 199
331 331 331 331 331 330 329 330 332 334 335 339 339 338 342 341 343 349 347 341 343 9 13 1 344 316 277 258 246 247 246 248 247 233 227 221 214 215 216 210 203 207 215 214 213 218 216 213 213 205 197 210 221 220 219 218 219 223 224 226 233 240 244 245 244 243 247 258 271 268 245 233 236 237 225 210 204 201 197 196 196 195 198 199 199 201 199 198
331 331 331 332 332 330 331 332 332 333 334 338 341 344 350 356 5 1 355 357 353 352 357 360 353 320 287 268 249 245 243 244 243 228 221 216 210 208 210 208 199 193 207 213 205 210 213 208 213 210 202 204 212 217 221 218 217 225 228 228 229 237 246 246 240 239 245 252 273 288 254 230 239 265 251 213 206 202 195 197 197 194 196 196 196 202 202 200
330 331 331 332 332 331 333 331 331 335 337 342 347 350 354 9 13 1 354 1 0 357 356 356 352 324 290 269 241 229 220 222 227 225 218 211 205 205 206 208 205 195 192 200 195 198 207 202 201 204 204 205 208 214 214 204 203 216 235 239 234 226 227 233 232 230 238 246 255 273 254 231 239 264 306 234 211 204 195 194 193 191 195 195 195 203 205 203
330 330 330 332 332 332 333 331 333 337 339 345 348 352 5 21 26 23 14 6 6 2 354 352 358 346 300 244 208 210 203 206 223 200 206 209 197 198 204 208 212 206 199 196 187 182 194 205 205 197 195 200 201 208 208 196 190 184 223 248 241 228 224 223 221 218 229 240 244 258 263 243 246 256 277 293 212 204 199 194 191 190 194 194 195 202 206 205
330 330 330 332 332 333 332 331 333 334 340 343 343 2 22 20 32 41 28 20 16 1 350 347 355 359 345 313 164 87 70 153 183 181 173 197 192 196 203 200 204 213 212 200 188 189 185 189 206 204 203 205 200 199 198 194 189 174 195 235 236 232 233 226 218 219 238 245 247 261 267 246 245 259 261 283 222 202 199 194 193 192 195 196 195 200 206 206
329 329 330 331 333 335 332 330 330 331 338 336 339 13 24 9 36 43 31 22 6 344 341 351 347 7 37 19 54 8 341 116 146 194 159 149 184 195 196 194 188 189 203 192 183 199 193 186 201 209 213 214 209 201 192 185 189 185 193 222 232 236 240 231 218 222 242 251 254 259 256 238 229 238 255 251 233 205 196 194 196 196 195 195 193 197 205 206
328 329 330 330 334 336 331 329 327 326 329 325 332 359 355 36 60 53 32 353 320 323 18 42 338 332 31 23 48 40 323 12 86 211 144 129 183 183 179 190 177 159 169 185 181 199 204 202 210 217 221 223 222 218 205 188 191 195 194 206 223 231 235 237 229 226 235 243 248 251 252 247 232 228 245 253 230 217 202 195 200 202 199 195 192 193 201 203
327 329 330 330 334 335 331 329 324 321 321 314 317 320 305 63 72 65 28 317 347 7 33 77 288 310 27 10 354 17 280 335 15 12 151 139 131 144 167 190 176 162 165 173 172 190 209 218 226 230 235 231 228 234 221 195 188 198 202 208 215 217 219 230 238 231 231 239 245 249 255 254 240 231 234 243 236 225 218 206 209 211 208 202 194 191 195 199
328 330 330 330 335 334 331 328 320 320 311 292 303 312 288 10 37 74 212 271 59 58 340 351 18 47 44 340 332 345 287 245 20 23 159 149 125 127 143 182 180 173 163 157 170 187 197 213 236 254 263 251 231 231 222 199 190 198 211 220 221 216 214 214 234 236 227 235 248 251 251 247 243 233 229 233 240 240 230 221 227 221 211 206 198 192 194 196
329 330 330 331 334 333 331 327 318 316 299 278 297 303 284 324 354 312 219 227 123 109 23 353 7 44 22 338 344 331 292 191 32 319 212 149 137 143 148 160 206 179 175 187 191 187 188 182 200 237 256 257 241 214 206 199 198 204 211 220 221 213 211 206 226 252 243 239 250 250 246 249 254 249 238 240 240 242 236 223 224 209 198 200 200 199 200 199
329 329 330 331 332 332 332 328 316 306 290 276 287 287 292 323 321 309 353 151 156 115 50 323 297 337 170 228 320 317 347 129 170 210 243 189 149 150 158 171 187 181 186 195 157 154 171 162 181 219 242 260 247 209 198 200 203 210 210 212 217 213 216 212 217 246 256 254 247 242 245 250 257 262 256 253 247 246 249 230 217 196 186 193 201 205 207 205
328 328 331 328 328 331 331 328 314 298 280 266 280 274 283 358 331 300 339 132 161 118 43 298 267 172 169 173 289 315 98 59 209 183 221 203 162 155 159 173 184 186 190 185 147 148 154 142 158 196 225 275 255 216 199 203 205 208 201 192 199 211 226 223 216 230 250 265 258 245 250 256 261 269 262 254 249 245 242 233 222 207 194 196 202 207 212 211
327 328 330 328 324 325 330 329 309 292 269 244 257 243 164 34 349 308 257 158 170 135 93 223 183 5 156 132 54 193 172 131 1 206 226 182 158 159 162 172 182 191 192 180 164 163 157 152 160 159 141 249 257 238 207 205 204 204 201 197 193 194 207 217 222 232 243 270 278 259 254 259 259 261 256 245 239 232 227 226 225 218 208 204 204 205 213 218
326 327 330 329 323 322 328 321 298 285 263 247 234 218 206 106 75 308 306 56 95 127 185 174 132 7 206 139 112 151 230 221 152 220 239 213 188 179 181 178 173 190 188 176 175 171 158 155 160 158 160 184 231 260 239 204 197 195 198 202 196 185 188 204 216 232 245 276 292 274 265 261 246 244 247 237 233 233 232 226 220 222 219 216 216 213 214 220
324 324 327 324 314 314 316 308 294 278 255 259 249 237 288 190 175 295 334 18 61 7 221 183 145 136 166 154 132 144 260 244 172 234 253 232 237 209 191 188 198 202 183 174 184 177 165 159 152 152 159 167 205 252 257 205 187 188 195 203 203 191 182 196 206 210 229 247 271 276 275 266 245 236 234 226 226 232 234 226 216 219 223 223 225 223 221 224
322 321 324 321 309 305 306 300 285 263 243 268 287 283 280 203 182 248 339 15 352 313 206 180 208 175 150 143 170 165 162 188 198 235 203 176 228 237 210 193 208 207 170 170 187 179 172 168 154 155 164 172 184 202 237 201 171 176 196 203 206 200 189 187 190 193 209 215 236 265 272 268 254 245 238 228 226 231 232 225 215 216 222 225 228 227 225 226
321 320 323 320 308 300 299 288 268 254 247 277 304 302 288 223 187 205 130 114 255 239 176 193 258 186 159 150 155 156 163 188 209 224 186 178 205 234 221 192 198 199 175 178 185 177 178 179 166 162 165 169 167 157 172 206 174 171 192 203 205 211 214 200 183 181 205 213 226 243 250 257 256 247 236 226 231 239 236 230 223 225 230 228 228 226 224 225
320 319 320 317 307 294 286 276 263 254 256 258 192 105 310 265 226 218 175 157 230 238 220 236 240 187 177 177 172 173 184 191 190 185 196 206 218 231 225 188 184 199 200 195 188 182 188 191 178 163 156 161 162 154 162 192 180 167 167 187 192 204 240 230 201 194 201 208 219 226 232 244 247 241 229 220 224 229 234 233 227 228 233 232 229 223 218 219
319 316 311 304 290 273 269 273 263 253 263 262 226 184 288 271 266 258 235 237 251 257 240 230 239 201 193 198 198 191 183 177 185 198 212 233 248 240 224 197 199 210 208 204 198 192 198 202 190 171 160 164 162 159 170 182 174 162 157 164 177 188 213 223 211 211 209 206 214 223 232 238 239 238 230 222 220 219 225 232 229 226 229 234 235 227 217 213
316 311 299 295 288 264 251 262 258 265 304 288 253 216 161 253 282 277 240 247 252 254 251 235 241 226 201 200 201 192 173 176 196 211 205 207 263 248 225 208 217 218 209 218 214 200 204 210 202 189 176 168 164 167 178 179 171 166 162 159 173 198 203 197 203 215 219 217 218 224 232 234 237 239 234 226 219 210 217 230 233 230 230 235 238 234 225 217
314 309 297 298 300 282 249 255 252 286 320 299 272 242 183 202 274 287 251 251 245 244 252 241 253 261 209 195 200 184 178 199 215 217 201 187 225 249 237 218 217 216 216 222 211 202 208 210 206 200 188 177 174 175 182 186 177 171 170 164 173 204 209 216 226 217 212 216 220 226 230 231 235 237 235 233 223 213 219 227 229 233 237 236 233 229 228 227
312 308 297 292 291 278 253 255 241 192 237 266 264 248 218 205 251 283 272 260 244 245 244 229 244 261 207 201 201 186 189 208 225 225 208 202 212 233 238 223 207 212 219 216 197 198 209 208 207 205 196 191 187 177 183 192 179 166 174 179 191 213 214 229 242 223 208 210 215 223 229 230 234 234 235 238 232 223 223 224 225 231 232 225 222 223 225 230
309 305 292 278 278 273 260 259 242 189 204 240 244 234 227 216 208 222 247 254 223 226 238 225 231 254 239 230 214 205 213 222 229 237 231 225 230 244 251 240 223 217 217 219 208 197 205 211 213 211 203 200 196 187 187 188 177 174 184 188 202 216 210 218 230 217 205 207 212 222 229 231 232 233 234 237 237 234 233 232 229 227 224 218 222 230 232 232
306 302 286 275 274 272 266 265 241 203 214 236 237 235 238 226 212 220 234 244 224 223 237 225 219 244 254 252 244 237 242 237 229 241 251 251 248 242 237 242 249 240 226 228 227 213 210 216 217 213 207 202 199 199 193 182 181 191 194 197 207 207 201 208 215 211 207 209 214 222 227 228 228 229 231 233 235 236 237 240 236 228 225 225 223 226 227 226
304 300 287 277 268 261 260 261 241 223 234 244 237 241 242 231 236 239 239 245 238 234 244 238 233 253 255 253 257 253 247 242 240 246 250 251 247 230 211 212 232 242 233 231 238 235 227 228 226 219 212 201 199 203 196 181 191 208 206 209 214 206 200 203 204 209 214 216 222 228 233 237 234 229 231 232 231 231 230 237 238 232 231 233 229 225 223 222
304 298 289 278 263 252 248 246 237 225 236 247 241 243 243 237 248 253 247 253 252 243 246 244 245 256 253 250 257 258 252 251 250 252 250 251 255 243 229 228 229 238 245 240 243 247 240 240 235 226 218 204 197 200 197 190 204 216 216 224 226 216 209 204 202 209 214 216 222 228 234 241 239 234 233 230 229 226 223 228 234 232 233 237 237 234 228 219